Home > Weather > Mülheim > Past weeks

Flag for Germany Past Weather in Mülheim, North Rhine-Westphalia, Germany — Yesterday and Last 2 Weeks

Now
88 °F

Passing clouds.


Feels Like: 87 °F
Forecast: 67 / 85 °F
Wind: 7 mph from Southeast

Location: Koeln / Bonn

Current Time: Aug 24, 2016 at 6:11:27 PM

Latest Report: Aug 24, 2016 at 5:20 PM


Visibility: N/A

Pressure: 30.12 "Hg

Humidity: 38%

Dew Point: 59 °F

Location of MülheimLocation

Past Weather in Mülheim — Graph

°F

Mülheim Temperature Yesterday

Maximum temperature yesterday: 82 °F (at 2:50 PM)
Minimum temperature yesterday: 54 °F (at 4:50 AM)
Average temperature yesterday: 69 °F

High & Low Weather Summary for the Past Weeks

 TemperatureHumidityPressure
High88 °F (Aug 24, 3:50 PM)100% (Aug 11, 4:50 AM)30.36 "Hg (Aug 11, 4:50 AM)
Low45 °F (Aug 11, 4:50 AM)38% (Aug 24, 4:20 PM)29.77 "Hg (Aug 18, 2:20 PM)
Average64 °F75%30.10 "Hg
* Reported Aug 9 4:20 PM — Aug 24 4:50 PM, Mülheim, Weather by CustomWeather, © 2016

Note: Actual official high and low records may vary slightly from our data, if they occured in-between our weather recording intervals... More about our weather records

Advertising

Mülheim Weather History for the Previous 24 Hours

Scroll right to see more
 ConditionsComfort  
Time TempWeatherWind HumidityBarometerVisibility
4:50 PM
Wed, Aug 24
88 °FPassing clouds.10 mph38%30.12 "HgN/A
4:20 PM88 °FPassing clouds.10 mph38%30.12 "HgN/A
3:50 PM88 °FPassing clouds.9 mph40%30.15 "HgN/A
3:20 PM86 °FPassing clouds.10 mph43%30.15 "HgN/A
2:50 PM86 °FPassing clouds.10 mph46%30.15 "HgN/A
2:20 PM84 °FPassing clouds.10 mph45%30.18 "HgN/A
1:50 PM84 °FPassing clouds.9 mph48%30.18 "HgN/A
1:20 PM84 °FPassing clouds.10 mph48%30.18 "HgN/A
12:50 PM84 °FPassing clouds.13 mph48%30.18 "HgN/A
12:20 PM82 °FPassing clouds.14 mph51%30.18 "HgN/A
11:50 AM81 °FSunny.17 mph51%30.21 "Hg10 mi
11:20 AM79 °FPassing clouds.10 mph54%30.21 "HgN/A
10:50 AM77 °FPassing clouds.10 mph57%30.21 "HgN/A
10:20 AM75 °FPassing clouds.10 mph57%30.21 "HgN/A
9:50 AM73 °FPassing clouds.10 mph61%30.21 "HgN/A
9:20 AM72 °FPassing clouds.7 mph65%30.21 "HgN/A
8:50 AM70 °FPassing clouds.7 mph64%30.21 "HgN/A
8:20 AM68 °FPassing clouds.7 mph69%30.21 "HgN/A
7:50 AM64 °FPassing clouds.6 mph73%30.21 "HgN/A
7:20 AM63 °FPassing clouds.5 mph77%30.21 "HgN/A
6:50 AM63 °FPassing clouds.6 mph77%30.21 "HgN/A
6:20 AM63 °FClear.6 mph77%30.21 "Hg10 mi
5:50 AM61 °FPassing clouds.5 mph83%30.21 "HgN/A
5:20 AM57 °FClear.5 mph94%30.21 "Hg10 mi
4:50 AM63 °FPassing clouds.3 mph77%30.21 "HgN/A
4:20 AM63 °FPassing clouds.5 mph77%30.21 "HgN/A
3:50 AM64 °FClear.6 mph78%30.21 "Hg10 mi
3:20 AM64 °FPassing clouds.6 mph78%30.21 "HgN/A
2:50 AM64 °FPassing clouds.6 mph78%30.21 "HgN/A
2:20 AM66 °FPassing clouds.6 mph78%30.24 "HgN/A
1:50 AM66 °FPassing clouds.7 mph73%30.24 "HgN/A
1:20 AM66 °FPassing clouds.6 mph78%30.24 "HgN/A
12:50 AM66 °FPassing clouds.5 mph78%30.24 "HgN/A
12:20 AM66 °FPassing clouds.3 mph78%30.24 "HgN/A
11:50 PM
Tue, Aug 23
68 °FPassing clouds.5 mph78%30.24 "HgN/A
11:20 PM68 °FClear.1 mph78%30.24 "Hg10 mi
10:50 PM70 °FClear.2 mph73%30.24 "Hg10 mi
10:20 PM70 °FClear.7 mph73%30.24 "Hg10 mi
9:50 PM70 °FClear.6 mph73%30.24 "Hg10 mi
9:20 PM72 °FSunny.6 mph69%30.24 "Hg10 mi
8:50 PM73 °FSunny.5 mph65%30.24 "Hg10 mi
8:20 PM75 °FSunny.5 mph65%30.24 "Hg10 mi
7:50 PM79 °FSunny.5 mph58%30.24 "Hg10 mi
7:20 PM81 °FSunny.6 mph51%30.24 "Hg10 mi
6:50 PM82 °FSunny.7 mph48%30.24 "Hg10 mi
6:20 PM82 °FSunny.7 mph45%30.24 "Hg10 mi
Weather by CustomWeather, © 2016

See weather overviewHow to use our weather pages